Location: Phoenix
(33.4480°N, 112.0730°W)
Time: 09:52:10
(UTC-07:00)

Cosmos 1470 Rocket - Visible Passes

Search period start: 25 May 2016 00:00
Search period end: 04 June 2016 00:00
Orbit: 604 x 635 km, 82.5° (Epoch: 24 May)

Date Brightness Start Highest point End Pass type
(mag) Time Alt. Az. Time Alt. Az. Time Alt. Az.
25 May 3.7 02:53:52 65° NW 02:53:52 65° NW 02:57:50 10° N visible
26 May 6.2 01:34:11 14° ENE 01:34:11 14° ENE 01:35:52 10° NE visible
26 May 4.5 03:11:22 34° WNW 03:11:22 34° WNW 03:14:56 10° NNW visible
27 May 5.5 01:51:40 26° ENE 01:51:40 26° ENE 01:54:24 10° NNE visible
27 May 5.3 03:28:50 18° WNW 03:28:50 18° WNW 03:31:30 10° NNW visible
28 May 4.7 02:09:07 41° NE 02:09:07 41° NE 02:12:13 10° NNE visible
29 May 4.5 02:26:33 43° NNW 02:26:33 43° NNW 02:29:39 10° N visible
30 May 6.3 01:06:48 13° ENE 01:06:48 13° ENE 01:07:52 10° NE visible
30 May 5.0 02:43:58 28° NW 02:43:58 28° NW 02:46:42 10° NNW visible
31 May 5.7 01:24:13 23° NE 01:24:13 23° NE 01:26:17 10° NNE visible
31 May 5.6 03:01:22 16° WNW 03:01:22 16° WNW 03:03:12 10° NW visible
01 Jun 5.2 01:41:36 32° NNE 01:41:36 32° NNE 01:44:04 10° NNE visible
02 Jun 5.1 01:58:58 32° NNW 01:58:58 32° NNW 02:01:28 10° N visible
03 Jun 6.3 00:39:11 12° NE 00:39:11 12° NE 00:39:50 10° NE visible
03 Jun 5.4 02:16:20 23° NW 02:16:20 23° NW 02:18:29 10° NNW visible
